Location: Bernadets
(43.3537°N, 0.3167°E)
Time: 00:38:54
(UTC+00:00)

NOSS 3-1 (A) - Pass Details

Date: 24 October 2021
Orbit: 721 x 1491 km, 63.4° (Epoch: 22 November)

Event Time Altitude Azimuth Distance (km) Brightness Sun altitude
Rises 19:37:00 0° 243° (WSW) 3,219 7.0 -28.9°
Reaches altitude 10° 19:39:25 10° 252° (WSW) 2,358 6.2 -29.3°
Maximum altitude 19:44:25 38° 320° (NW) 1,322 4.5 -30.2°
Enters shadow 19:47:26 24° 10° (N) 1,855 4.9 -30.7°
